| time (UTC) | temp F | wind direction | speed MPH | gust MPH | rain 1hr in | rain 24hr in | rain mn in | humidity % | barometer mb |
| 20260504110555 | 59 | 148 | 3.0 | 4.0 | 0.00 | 0.00 | 0.00 | 85 | 1015.5 |
| 20260504110104 | 59 | 152 | 3.0 | 4.0 | 0.00 | 0.00 | 0.00 | 84 | 1015.5 |
| 20260504100554 | 60 | 150 | 5.0 | 8.0 | 0.00 | 0.00 | 0.00 | 81 | 1015.2 |
| 20260504100103 | 60 | 146 | 6.0 | 8.0 | 0.00 | 0.00 | 0.00 | 81 | 1015.1 |
| 20260504081556 | 61 | 147 | 6.0 | 9.0 | 0.00 | 0.00 | 0.00 | 79 | 1016.0 |
| 20260504081058 | 61 | 186 | 5.0 | 9.0 | 0.00 | 0.00 | 0.00 | 79 | 1016.1 |
| 20260504080557 | 61 | 157 | 6.0 | 9.0 | 0.00 | 0.00 | 0.00 | 79 | 1016.1 |
| 20260504050553 | 64 | 165 | 5.0 | 8.0 | 0.00 | 0.00 | 0.00 | 76 | 1018.2 |
| 20260504045554 | 64 | 164 | 7.0 | 9.0 | 0.00 | 0.00 | 0.00 | 75 | 1018.3 |
| 20260504045054 | 64 | 150 | 5.0 | 9.0 | 0.00 | 0.00 | 0.00 | 75 | 1018.4 |
| 20260504044554 | 64 | 158 | 6.0 | 9.0 | 0.00 | 0.00 | 0.00 | 75 | 1018.4 |
| 20260504044055 | 64 | 149 | 5.0 | 7.0 | 0.00 | 0.00 | 0.00 | 75 | 1018.5 |
| 20260504043555 | 64 | 160 | 5.0 | 9.0 | 0.00 | 0.00 | 0.00 | 75 | 1018.6 |
| 20260504043058 | 64 | 170 | 5.0 | 9.0 | 0.00 | 0.00 | 0.00 | 75 | 1018.7 |
| 20260504042559 | 64 | 172 | 6.0 | 8.0 | 0.00 | 0.00 | 0.00 | 75 | 1018.5 |
| 20260504042055 | 64 | 150 | 6.0 | 8.0 | 0.00 | 0.00 | 0.00 | 75 | 1018.4 |
| 20260504041553 | 64 | 153 | 5.0 | 9.0 | 0.00 | 0.00 | 0.00 | 74 | 1018.5 |
| 20260504041057 | 64 | 148 | 5.0 | 9.0 | 0.00 | 0.00 | 0.00 | 73 | 1018.6 |
| 20260504040555 | 64 | 175 | 6.0 | 7.0 | 0.00 | 0.00 | 0.00 | 73 | 1018.6 |
| 20260504040056 | 64 | 160 | 4.0 | 8.0 | 0.00 | 0.00 | 0.00 | 73 | 1018.5 |
| 20260504035555 | 65 | 175 | 5.0 | 8.0 | 0.00 | 0.00 | 0.00 | 73 | 1018.5 |
| 20260504035054 | 65 | 172 | 5.0 | 9.0 | 0.00 | 0.00 | 0.00 | 72 | 1018.6 |
| 20260504034552 | 65 | 166 | 6.0 | 9.0 | 0.00 | 0.00 | 0.00 | 72 | 1018.7 |
| 20260504034054 | 65 | 159 | 6.0 | 9.0 | 0.00 | 0.00 | 0.00 | 72 | 1018.6 |
| 20260504033554 | 65 | 182 | 7.0 | 10.0 | 0.00 | 0.00 | 0.00 | 72 | 1018.6 |
| 20260504033102 | 65 | 177 | 7.0 | 10.0 | 0.00 | 0.00 | 0.00 | 72 | 1018.6 |
| 20260504032552 | 65 | 172 | 6.0 | 9.0 | 0.00 | 0.00 | 0.00 | 72 | 1018.5 |
| 20260504032056 | 65 | 170 | 6.0 | 9.0 | 0.00 | 0.00 | 0.00 | 71 | 1018.4 |
| 20260504031604 | 65 | 168 | 6.0 | 9.0 | 0.00 | 0.00 | 0.00 | 72 | 1018.5 |
| 20260504031056 | 65 | 155 | 6.0 | 9.0 | 0.00 | 0.00 | 0.00 | 71 | 1018.4 |
| 20260504030558 | 66 | 159 | 6.0 | 8.0 | 0.00 | 0.00 | 0.00 | 71 | 1018.4 |
| 20260504030058 | 66 | 165 | 6.0 | 10.0 | 0.00 | 0.00 | 0.00 | 70 | 1018.6 |
| 20260504025555 | 66 | 156 | 7.0 | 10.0 | 0.00 | 0.00 | 0.00 | 69 | 1018.5 |
| 20260504025055 | 66 | 174 | 7.0 | 12.0 | 0.00 | 0.00 | 0.00 | 69 | 1018.5 |
| 20260504024554 | 67 | 154 | 7.0 | 12.0 | 0.00 | 0.00 | 0.00 | 69 | 1018.6 |
| 20260504024059 | 67 | 192 | 7.0 | 11.0 | 0.00 | 0.00 | 0.00 | 68 | 1018.4 |
| 20260504023552 | 67 | 172 | 8.0 | 11.0 | 0.00 | 0.00 | 0.00 | 69 | 1018.2 |
| 20260504023055 | 67 | 169 | 7.0 | 12.0 | 0.00 | 0.00 | 0.00 | 68 | 1018.1 |
| 20260504022555 | 67 | 160 | 7.0 | 12.0 | 0.00 | 0.00 | 0.00 | 68 | 1018.0 |
| 20260504022054 | 68 | 141 | 8.0 | 14.0 | 0.00 | 0.00 | 0.00 | 67 | 1017.9 |
| 20260504021558 | 68 | 165 | 9.0 | 14.0 | 0.00 | 0.00 | 0.00 | 67 | 1017.7 |
| 20260504021056 | 68 | 146 | 8.0 | 12.0 | 0.00 | 0.00 | 0.00 | 67 | 1017.7 |
| 20260504020556 | 68 | 146 | 9.0 | 12.0 | 0.00 | 0.00 | 0.00 | 67 | 1017.7 |
| 20260504020128 | 68 | 143 | 8.0 | 13.0 | 0.00 | 0.00 | 0.00 | 67 | 1017.6 |
| 20260504015556 | 69 | 132 | 9.0 | 14.0 | 0.00 | 0.00 | 0.00 | 66 | 1017.7 |
| 20260504015056 | 69 | 151 | 9.0 | 14.0 | 0.00 | 0.00 | 0.00 | 66 | 1017.6 |
| 20260504014607 | 69 | 160 | 9.0 | 14.0 | 0.00 | 0.00 | 0.00 | 66 | 1017.6 |
| 20260504014055 | 69 | 148 | 10.0 | 14.0 | 0.00 | 0.00 | 0.00 | 66 | 1017.7 |
| 20260504013555 | 70 | 129 | 10.0 | 14.0 | 0.00 | 0.00 | 0.00 | 66 | 1017.6 |
| 20260504013116 | 70 | 153 | 9.0 | 14.0 | 0.00 | 0.00 | 0.00 | 66 | 1017.5 |
| 20260504012555 | 70 | 151 | 10.0 | 14.0 | 0.00 | 0.00 | 0.00 | 66 | 1017.6 |
| 20260504012057 | 70 | 162 | 9.0 | 14.0 | 0.00 | 0.00 | 0.00 | 66 | 1017.5 |
| 20260504011554 | 70 | 159 | 9.0 | 14.0 | 0.00 | 0.00 | 0.00 | 65 | 1017.4 |
| 20260504011055 | 71 | 160 | 7.0 | 11.0 | 0.00 | 0.00 | 0.00 | 66 | 1017.4 |
| 20260504010555 | 71 | 136 | 8.0 | 13.0 | 0.00 | 0.00 | 0.00 | 65 | 1017.4 |
| 20260504010057 | 72 | 148 | 9.0 | 13.0 | 0.00 | 0.00 | 0.00 | 63 | 1017.4 |
| 20260504005552 | 72 | 161 | 9.0 | 13.0 | 0.00 | 0.00 | 0.00 | 60 | 1017.5 |
| 20260504005056 | 72 | 162 | 9.0 | 13.0 | 0.00 | 0.00 | 0.00 | 56 | 1017.6 |
| 20260504004635 | 72 | 146 | 4.0 | 5.0 | 0.00 | 0.00 | 0.00 | 54 | 1017.6 |
| 20260504004056 | 73 | 131 | 4.0 | 5.0 | 0.00 | 0.00 | 0.00 | 51 | 1017.4 |
| 20260504003555 | 73 | 144 | 3.0 | 5.0 | 0.00 | 0.00 | 0.00 | 50 | 1017.5 |
| 20260504003100 | 74 | 130 | 4.0 | 5.0 | 0.00 | 0.00 | 0.00 | 49 | 1017.6 |
| 20260504002555 | 74 | 131 | 4.0 | 5.0 | 0.00 | 0.00 | 0.00 | 48 | 1017.6 |
| 20260504002055 | 75 | 134 | 3.0 | 8.0 | 0.00 | 0.00 | 0.00 | 48 | 1017.6 |
| 20260504001621 | 75 | 138 | 4.0 | 8.0 | 0.00 | 0.00 | 0.00 | 46 | 1017.6 |
| 20260504001055 | 75 | 130 | 6.0 | 8.0 | 0.00 | 0.00 | 0.00 | 43 | 1017.6 |
| 20260504000555 | 76 | 129 | 5.0 | 8.0 | 0.00 | 0.00 | 0.00 | 45 | 1017.6 |
| 20260504000113 | 76 | 146 | 6.0 | 8.0 | 0.00 | 0.00 | 0.00 | 45 | 1017.7 |
| 20260503235559 | 76 | 155 | 4.0 | 9.0 | 0.00 | 0.00 | 0.00 | 46 | 1017.8 |
| 20260503235055 | 76 | 135 | 6.0 | 9.0 | 0.00 | 0.00 | 0.00 | 44 | 1017.9 |
| 20260503234604 | 76 | 150 | 6.0 | 9.0 | 0.00 | 0.00 | 0.00 | 42 | 1017.9 |
| 20260503234056 | 76 | 142 | 5.0 | 8.0 | 0.00 | 0.00 | 0.00 | 46 | 1017.9 |
| 20260503233552 | 76 | 136 | 5.0 | 7.0 | 0.00 | 0.00 | 0.00 | 42 | 1017.8 |
| 20260503233101 | 77 | 127 | 5.0 | 8.0 | 0.00 | 0.00 | 0.00 | 43 | 1017.7 |
| 20260503232556 | 76 | 136 | 6.0 | 9.0 | 0.00 | 0.00 | 0.00 | 43 | 1017.7 |
| 20260503232056 | 76 | 137 | 7.0 | 9.0 | 0.00 | 0.00 | 0.00 | 41 | 1017.7 |
| 20260503231555 | 77 | 146 | 7.0 | 9.0 | 0.00 | 0.00 | 0.00 | 43 | 1017.9 |
| 20260503231056 | 77 | 134 | 5.0 | 9.0 | 0.00 | 0.00 | 0.00 | 41 | 1017.9 |
| 20260503230556 | 77 | 141 | 7.0 | 9.0 | 0.00 | 0.00 | 0.00 | 41 | 1018.1 |
| 20260503230111 | 77 | 129 | 5.0 | 11.0 | 0.00 | 0.00 | 0.00 | 42 | 1018.2 |
| 20260503225555 | 78 | 127 | 4.0 | 11.0 | 0.00 | 0.00 | 0.00 | 41 | 1018.1 |
| 20260503225055 | 78 | 170 | 7.0 | 11.0 | 0.00 | 0.00 | 0.00 | 39 | 1018.1 |
| 20260503224604 | 78 | 160 | 5.0 | 12.0 | 0.00 | 0.00 | 0.00 | 42 | 1018.1 |
| 20260503224055 | 77 | 137 | 7.0 | 12.0 | 0.00 | 0.00 | 0.00 | 41 | 1018.2 |
| 20260503223556 | 77 | 143 | 9.0 | 12.0 | 0.00 | 0.00 | 0.00 | 41 | 1018.3 |
| 20260503223054 | 78 | 117 | 8.0 | 12.0 | 0.00 | 0.00 | 0.00 | 40 | 1018.4 |
| 20260503222556 | 78 | 153 | 6.0 | 11.0 | 0.00 | 0.00 | 0.00 | 42 | 1018.5 |
| 20260503222055 | 78 | 172 | 5.0 | 10.0 | 0.00 | 0.00 | 0.00 | 40 | 1018.6 |
| 20260503221602 | 78 | 196 | 7.0 | 12.0 | 0.00 | 0.00 | 0.00 | 37 | 1018.6 |
| 20260503221056 | 78 | 211 | 3.0 | 13.0 | 0.00 | 0.00 | 0.00 | 38 | 1018.6 |
| 20260503220556 | 78 | 193 | 7.0 | 13.0 | 0.00 | 0.00 | 0.00 | 39 | 1018.6 |
| 20260503220058 | 78 | 129 | 7.0 | 13.0 | 0.00 | 0.00 | 0.00 | 43 | 1018.7 |
| 20260503215556 | 78 | 157 | 10.0 | 13.0 | 0.00 | 0.00 | 0.00 | 42 | 1018.9 |
| 20260503215055 | 78 | 179 | 7.0 | 13.0 | 0.00 | 0.00 | 0.00 | 39 | 1018.8 |
| 20260503214602 | 77 | 143 | 8.0 | 16.0 | 0.00 | 0.00 | 0.00 | 44 | 1019.1 |
| 20260503214059 | 78 | 145 | 9.0 | 16.0 | 0.00 | 0.00 | 0.00 | 46 | 1019.1 |
| 20260503213557 | 78 | 126 | 8.0 | 13.0 | 0.00 | 0.00 | 0.00 | 45 | 1019.0 |
| 20260503213100 | 77 | 162 | 8.0 | 14.0 | 0.00 | 0.00 | 0.00 | 44 | 1019.2 |
| 20260503212555 | 77 | 101 | 9.0 | 14.0 | 0.00 | 0.00 | 0.00 | 44 | 1019.3 |
| 20260503212055 | 77 | 171 | 8.0 | 12.0 | 0.00 | 0.00 | 0.00 | 46 | 1019.4 |
| 20260503211558 | 77 | 148 | 8.0 | 12.0 | 0.00 | 0.00 | 0.00 | 44 | 1019.4 |
| 20260503211056 | 77 | 125 | 6.0 | 11.0 | 0.00 | 0.00 | 0.00 | 47 | 1019.5 |
| 20260503210558 | 77 | 125 | 4.0 | 13.0 | 0.00 | 0.00 | 0.00 | 44 | 1019.7 |
| 20260503210058 | 77 | 150 | 6.0 | 13.0 | 0.00 | 0.00 | 0.00 | 44 | 1019.7 |
| 20260503205556 | 77 | 138 | 6.0 | 11.0 | 0.00 | 0.00 | 0.00 | 46 | 1019.8 |
| 20260503205056 | 77 | 112 | 6.0 | 11.0 | 0.00 | 0.00 | 0.00 | 40 | 1019.8 |
| 20260503204600 | 77 | 122 | 7.0 | 11.0 | 0.00 | 0.00 | 0.00 | 45 | 1019.9 |
| 20260503204055 | 77 | 113 | 5.0 | 12.0 | 0.00 | 0.00 | 0.00 | 44 | 1020.0 |
| 20260503203555 | 77 | 78 | 4.0 | 14.0 | 0.00 | 0.00 | 0.00 | 41 | 1020.0 |
| 20260503203113 | 77 | 151 | 7.0 | 14.0 | 0.00 | 0.00 | 0.00 | 45 | 1020.3 |
| 20260503202555 | 78 | 150 | 9.0 | 14.0 | 0.00 | 0.00 | 0.00 | 46 | 1020.4 |
| 20260503202056 | 78 | 143 | 7.0 | 12.0 | 0.00 | 0.00 | 0.00 | 46 | 1020.4 |
| 20260503201556 | 78 | 117 | 7.0 | 11.0 | 0.00 | 0.00 | 0.00 | 41 | 1020.5 |
| 20260503201055 | 77 | 173 | 6.0 | 11.0 | 0.00 | 0.00 | 0.00 | 42 | 1020.6 |
| 20260503200555 | 78 | 117 | 7.0 | 12.0 | 0.00 | 0.00 | 0.00 | 44 | 1020.6 |
| 20260503200105 | 78 | 114 | 8.0 | 13.0 | 0.00 | 0.00 | 0.00 | 44 | 1020.6 |
| 20260503195554 | 78 | 193 | 7.0 | 13.0 | 0.00 | 0.00 | 0.00 | 43 | 1020.6 |
| 20260503195055 | 78 | 136 | 6.0 | 11.0 | 0.00 | 0.00 | 0.00 | 50 | 1020.6 |
| 20260503194557 | 77 | 147 | 8.0 | 11.0 | 0.00 | 0.00 | 0.00 | 45 | 1020.7 |
| 20260503194057 | 77 | 120 | 3.0 | 14.0 | 0.00 | 0.00 | 0.00 | 43 | 1020.7 |
| 20260503193556 | 77 | 134 | 8.0 | 14.0 | 0.00 | 0.00 | 0.00 | 43 | 1020.9 |
| 20260503193055 | 77 | 154 | 5.0 | 13.0 | 0.00 | 0.00 | 0.00 | 45 | 1021.0 |
| 20260503192556 | 77 | 120 | 5.0 | 13.0 | 0.00 | 0.00 | 0.00 | 41 | 1021.1 |
| 20260503192055 | 76 | 126 | 7.0 | 13.0 | 0.00 | 0.00 | 0.00 | 46 | 1021.1 |
| 20260503191556 | 76 | 122 | 4.0 | 12.0 | 0.00 | 0.00 | 0.00 | 46 | 1021.2 |
| 20260503191055 | 76 | 93 | 6.0 | 14.0 | 0.00 | 0.00 | 0.00 | 43 | 1021.2 |
| 20260503190555 | 76 | 139 | 7.0 | 14.0 | 0.00 | 0.00 | 0.00 | 44 | 1021.4 |
| 20260503190106 | 77 | 141 | 7.0 | 14.0 | 0.00 | 0.00 | 0.00 | 43 | 1021.3 |
| 20260503185556 | 77 | 156 | 5.0 | 12.0 | 0.00 | 0.00 | 0.00 | 44 | 1021.4 |
| 20260503185055 | 76 | 110 | 6.0 | 12.0 | 0.00 | 0.00 | 0.00 | 49 | 1021.4 |
| 20260503184602 | 77 | 151 | 8.0 | 11.0 | 0.00 | 0.00 | 0.00 | 47 | 1021.6 |
| 20260503184057 | 77 | 145 | 7.0 | 13.0 | 0.00 | 0.00 | 0.00 | 44 | 1021.7 |
| 20260503183551 | 77 | 165 | 7.0 | 16.0 | 0.00 | 0.00 | 0.00 | 47 | 1021.7 |
| 20260503183056 | 77 | 171 | 10.0 | 16.0 | 0.00 | 0.00 | 0.00 | 48 | 1021.8 |
| 20260503182555 | 77 | 210 | 4.0 | 11.0 | 0.00 | 0.00 | 0.00 | 46 | 1022.0 |
| 20260503182055 | 76 | 157 | 7.0 | 11.0 | 0.00 | 0.00 | 0.00 | 46 | 1022.0 |
| 20260503181600 | 76 | 115 | 7.0 | 11.0 | 0.00 | 0.00 | 0.00 | 48 | 1022.1 |
| 20260503181056 | 76 | 146 | 7.0 | 13.0 | 0.00 | 0.00 | 0.00 | 45 | 1022.1 |
| 20260503180555 | 76 | 193 | 4.0 | 13.0 | 0.00 | 0.00 | 0.00 | 48 | 1022.1 |
| 20260503180058 | 76 | 192 | 6.0 | 13.0 | 0.00 | 0.00 | 0.00 | 50 | 1022.3 |
| 20260503175555 | 75 | 150 | 6.0 | 9.0 | 0.00 | 0.00 | 0.00 | 49 | 1022.4 |
| 20260503175055 | 75 | 131 | 5.0 | 10.0 | 0.00 | 0.00 | 0.00 | 50 | 1022.5 |
| 20260503174554 | 75 | 131 | 5.0 | 10.0 | 0.00 | 0.00 | 0.00 | 47 | 1022.7 |
| 20260503174055 | 75 | 163 | 4.0 | 12.0 | 0.00 | 0.00 | 0.00 | 45 | 1022.8 |
| 20260503173556 | 75 | 166 | 6.0 | 12.0 | 0.00 | 0.00 | 0.00 | 46 | 1022.9 |
| 20260503173100 | 75 | 157 | 7.0 | 12.0 | 0.00 | 0.00 | 0.00 | 48 | 1023.0 |
| 20260503172555 | 75 | 210 | 5.0 | 11.0 | 0.00 | 0.00 | 0.00 | 49 | 1023.1 |
| 20260503172054 | 75 | 110 | 4.0 | 12.0 | 0.00 | 0.00 | 0.00 | 45 | 1023.2 |
| 20260503171600 | 75 | 137 | 6.0 | 12.0 | 0.00 | 0.00 | 0.00 | 47 | 1023.2 |
| 20260503171057 | 75 | 112 | 5.0 | 10.0 | 0.00 | 0.00 | 0.00 | 46 | 1023.4 |
| 20260503170556 | 75 | 162 | 7.0 | 10.0 | 0.00 | 0.00 | 0.00 | 47 | 1023.4 |
| 20260503150555 | 71 | 205 | 6.0 | 9.0 | 0.00 | 0.00 | 0.00 | 65 | 1023.4 |
| 20260503131055 | 62 | 0 | 0.0 | 0.0 | 0.00 | 0.00 | 0.00 | 81 | 1023.0 |
| 20260503130555 | 62 | 0 | 0.0 | 0.0 | 0.00 | 0.00 | 0.00 | 81 | 1022.8 |